Perryton, TX

3:48 PM CDT on September 20, 2017 (GMT -0500)
Perryton Ochiltree County

Weather History for KPYX - April, 2013

Change the Weather History Date:

Monday, April 1, 2013

  Actual Average Record
Temperature  
Mean Temperature 44 °F -  
Max Temperature 54 °F 64 °F 91 °F (1978)
Min Temperature 34 °F 32 °F 19 °F (1972)
Degree Days  
Heating Degree Days 21    
Moisture  
Dew Point 34 °F    
Average Humidity 76    
Maximum Humidity 87    
Minimum Humidity 61    
Precipitation  
Precipitation 0.00 in - - ()
Sea Level Pressure  
Sea Level Pressure 30.07 in    
Wind  
Wind Speed 12 mph (East)    
Max Wind Speed 21 mph    
Max Gust Speed 28 mph    
Visibility 10 miles    
Events      
Averages and records for this station are not official NWS values.
T = Trace of Precipitation, MM = Missing Value Source: NWS Daily Summary

Daily Weather History Graph

Daily Weather History Graph

Search for Another Location

Airport or City:

Trip Planner

Search our weather history database for the weather conditions in past years. The results will help you decide how hot, cold, wet, or windy it might be!

Date:

Astronomy

Apr. 01, 2013 Rise Set
Actual Time 7:28 AM CDT 8:05 PM CDT
Civil Twilight 7:02 AM CDT 8:31 PM CDT
Nautical Twilight 6:32 AM CDT 9:02 PM CDT
Astronomical Twilight 6:00 AM CDT 9:33 PM CDT
Moon 1:08 AM CDT (4/1) 11:24 AM CDT (4/1)
Length of Visible Light 13h 28m
Length of Day
12h 36m
Waning Gibbous, 67% of the Moon is Illuminated
Apr 1
Waning Gibbous
Apr 2
Last Quarter
Apr 10
New
Apr 18
First Quarter
Apr 25
Full

Hourly Weather History & Observations

Time (CDT) Temp. Windchill Dew Point Humidity Pressure Visibility Wind Dir Wind Speed Gust Speed Precip Events Conditions
12:15 AM 44.8 °F 39.9 °F 32.0 °F 61% 29.98 in 10.0 mi SE 9.2 mph - N/A   Clear
12:35 AM 43.3 °F 38.1 °F 31.8 °F 64% 29.98 in 10.0 mi SSE 9.2 mph - N/A   Clear
12:55 AM 43.3 °F 38.1 °F 31.5 °F 63% 29.98 in 10.0 mi SSE 9.2 mph - N/A   Clear
1:15 AM 41.2 °F 35.5 °F 31.3 °F 68% 29.98 in 10.0 mi SSE 9.2 mph - N/A   Clear
1:35 AM 42.1 °F 37.7 °F 32.0 °F 67% 29.98 in 10.0 mi South 6.9 mph - N/A   Clear
1:55 AM 42.6 °F 37.2 °F 32.7 °F 68% 29.98 in 10.0 mi SSE 9.2 mph - N/A   Clear
2:15 AM 42.4 °F 37.0 °F 32.4 °F 68% 29.98 in 10.0 mi SSE 9.2 mph - N/A   Clear
2:35 AM 42.1 °F 36.6 °F 32.9 °F 70% 29.98 in 10.0 mi SSE 9.2 mph - N/A   Clear
2:55 AM 41.4 °F 36.2 °F 32.9 °F 72% 29.98 in 10.0 mi SSE 8.1 mph - N/A   Clear
3:15 AM 41.5 °F 36.4 °F 33.8 °F 74% 29.98 in 10.0 mi SSE 8.1 mph - N/A   Clear
3:35 AM 41.0 °F 35.8 °F 34.0 °F 76% 29.98 in 10.0 mi SSE 8.1 mph - N/A   Clear
3:55 AM 40.1 °F 35.3 °F 34.3 °F 80% 29.98 in 10.0 mi SSE 6.9 mph - N/A   Clear
4:15 AM 41.0 °F 37.1 °F 35.2 °F 80% 29.98 in 10.0 mi South 5.8 mph - N/A   Clear
4:35 AM 41.4 °F 36.2 °F 36.1 °F 82% 29.98 in 10.0 mi South 8.1 mph - N/A   Clear
4:55 AM 42.1 °F 36.6 °F 36.5 °F 81% 29.98 in 10.0 mi SSE 9.2 mph - N/A   Scattered Clouds
5:15 AM 44.1 °F 39.0 °F 38.3 °F 80% 29.98 in 10.0 mi South 9.2 mph - N/A   Scattered Clouds
5:35 AM 48.0 °F - 40.1 °F 74% 29.98 in 10.0 mi South 12.7 mph - N/A   Scattered Clouds
5:55 AM 48.0 °F - 40.1 °F 74% 29.98 in 10.0 mi South 9.2 mph - N/A   Mostly Cloudy
6:15 AM 47.5 °F - 40.3 °F 76% 29.98 in 10.0 mi South 8.1 mph - N/A   Mostly Cloudy
6:35 AM 46.8 °F - 40.3 °F 78% 29.99 in 10.0 mi South 6.9 mph - N/A   Scattered Clouds
7:15 AM 48.4 °F - 41.9 °F 78% 30.00 in 10.0 mi SSW 5.8 mph - N/A   Mostly Cloudy
7:35 AM 50.0 °F - 42.4 °F 75% 30.02 in 10.0 mi SSW 5.8 mph - N/A   Overcast
8:15 AM 50.2 °F - 41.9 °F 73% 30.05 in 10.0 mi NE 5.8 mph - N/A   Clear
8:35 AM 50.9 °F - 43.5 °F 76% 30.06 in 10.0 mi NE 4.6 mph - N/A   Clear
9:15 AM 53.8 °F - 44.2 °F 70% 30.09 in 10.0 mi ENE 8.1 mph - N/A   Clear
9:35 AM 54.0 °F - 44.1 °F 69% 30.10 in 10.0 mi NE 16.1 mph 23.0 mph N/A   Clear
9:55 AM 49.6 °F - 41.0 °F 72% 30.11 in 10.0 mi ENE 17.3 mph - N/A   Scattered Clouds
10:15 AM 48.2 °F - 40.3 °F 74% 30.10 in 10.0 mi ENE 20.7 mph 26.5 mph N/A   Scattered Clouds
10:35 AM 46.4 °F 38.7 °F 38.5 °F 74% 30.12 in 10.0 mi NE 20.7 mph 27.6 mph N/A   Mostly Cloudy
11:15 AM 44.6 °F 36.4 °F 36.7 °F 74% 30.13 in 10.0 mi NE 20.7 mph 26.5 mph N/A   Overcast
11:35 AM 44.1 °F 35.9 °F 36.7 °F 75% 30.13 in 10.0 mi NE 19.6 mph 25.3 mph N/A   Overcast
11:55 AM 45.0 °F 37.4 °F 37.0 °F 74% 30.14 in 10.0 mi NE 18.4 mph 26.5 mph N/A   Overcast
12:15 PM 43.9 °F 36.2 °F 36.3 °F 75% 30.14 in 10.0 mi ENE 17.3 mph 23.0 mph N/A   Overcast
12:35 PM 44.2 °F 36.2 °F 36.3 °F 74% 30.15 in 10.0 mi NE 19.6 mph 24.2 mph N/A   Overcast
1:15 PM 43.3 °F 35.2 °F 36.0 °F 75% 30.15 in 10.0 mi NE 18.4 mph - N/A   Overcast
1:35 PM 42.1 °F 33.6 °F 34.9 °F 76% 30.15 in 10.0 mi NE 18.4 mph 21.9 mph N/A   Overcast
1:55 PM 40.8 °F 32.3 °F 34.5 °F 78% 30.15 in 10.0 mi NE 17.3 mph 21.9 mph N/A   Overcast
2:15 PM 39.6 °F 30.3 °F 34.2 °F 81% 30.15 in 10.0 mi NE 18.4 mph 25.3 mph N/A   Overcast
2:35 PM 38.7 °F 30.1 °F 34.0 °F 83% 30.17 in 10.0 mi NE 15.0 mph - N/A   Overcast
3:15 PM 37.6 °F 29.1 °F 32.7 °F 83% 30.16 in 10.0 mi NE 13.8 mph - N/A   Overcast
3:35 PM 37.0 °F 26.7 °F 32.7 °F 84% 30.13 in 10.0 mi NE 19.6 mph 24.2 mph N/A   Overcast
3:55 PM 36.5 °F 26.3 °F 32.0 °F 84% 30.13 in 10.0 mi NE 18.4 mph - N/A   Overcast
4:15 PM 35.6 °F 25.9 °F 32.0 °F 87% 30.12 in 7.0 mi NE 16.1 mph 21.9 mph N/A   Overcast
4:35 PM 35.8 °F 26.5 °F 32.2 °F 87% 30.14 in 10.0 mi NE 15.0 mph - N/A   Overcast
4:55 PM 36.0 °F 26.7 °F 32.0 °F 86% 30.12 in 10.0 mi NE 15.0 mph - N/A   Overcast
5:15 PM 35.8 °F 26.1 °F 32.0 °F 86% 30.12 in 10.0 mi NE 16.1 mph 19.6 mph N/A   Overcast
5:35 PM 36.0 °F 26.7 °F 31.6 °F 84% 30.11 in 10.0 mi NE 15.0 mph 21.9 mph N/A   Overcast
6:15 PM 35.4 °F 25.3 °F 30.0 °F 81% 30.11 in 10.0 mi NE 17.3 mph 20.7 mph N/A   Overcast
6:35 PM 34.9 °F 24.9 °F 28.8 °F 78% 30.10 in 10.0 mi NE 16.1 mph - N/A   Overcast
6:55 PM 34.7 °F 24.0 °F 27.9 °F 76% 30.10 in 10.0 mi NE 18.4 mph 23.0 mph N/A   Overcast
7:15 PM 34.7 °F 24.7 °F 27.7 °F 76% 30.09 in 10.0 mi ENE 16.1 mph - N/A   Overcast
7:35 PM 34.2 °F 24.0 °F 27.1 °F 75% 30.09 in 10.0 mi NE 16.1 mph - N/A   Overcast
7:55 PM 34.7 °F 24.0 °F 27.5 °F 75% 30.09 in 10.0 mi NE 18.4 mph - N/A   Overcast
8:15 PM 34.3 °F 24.2 °F 27.5 °F 76% 30.09 in 10.0 mi NE 16.1 mph - N/A   Overcast
8:35 PM 34.2 °F 24.4 °F 26.8 °F 74% 30.10 in 10.0 mi NE 15.0 mph - N/A   Overcast
8:55 PM 34.5 °F 24.8 °F 27.1 °F 74% 30.10 in 10.0 mi NE 15.0 mph - N/A   Overcast
9:15 PM 34.7 °F 26.4 °F 27.0 °F 73% 30.11 in 10.0 mi ENE 11.5 mph - N/A   Overcast
9:35 PM 34.7 °F 25.5 °F 27.3 °F 74% 30.12 in 10.0 mi ENE 13.8 mph - N/A   Overcast
9:55 PM 34.7 °F 25.5 °F 27.5 °F 75% 30.12 in 10.0 mi ENE 13.8 mph - N/A   Overcast
10:15 PM 34.9 °F 26.6 °F 27.5 °F 74% 30.14 in 10.0 mi NE 11.5 mph - N/A   Overcast
10:35 PM 34.9 °F 25.7 °F 27.5 °F 74% 30.14 in 10.0 mi NE 13.8 mph - N/A   Overcast
10:55 PM 34.9 °F 26.2 °F 27.3 °F 74% 30.14 in 10.0 mi NE 12.7 mph - N/A   Overcast
11:15 PM 34.7 °F 25.5 °F 26.6 °F 72% 30.15 in 10.0 mi NE 13.8 mph - N/A   Overcast
11:35 PM 34.7 °F 25.5 °F 26.8 °F 73% 30.15 in 10.0 mi NE 13.8 mph - N/A   Overcast
11:55 PM 34.7 °F 24.7 °F 26.6 °F 72% 30.15 in 10.0 mi NE 16.1 mph - N/A   Overcast